Year,Month,Day,Hour,Minute,Value (Times are PST for temperature in C)
2017,08,22,00,00,16.00
2017,08,22,00,01,16.00
2017,08,22,00,02,16.00
2017,08,22,00,03,16.00
2017,08,22,00,04,16.00
2017,08,22,00,05,15.90
2017,08,22,00,06,15.90
2017,08,22,00,07,15.90
2017,08,22,00,08,15.90
2017,08,22,00,09,15.90
2017,08,22,00,10,15.90
2017,08,22,00,11,15.90
2017,08,22,00,12,16.00
2017,08,22,00,13,16.00
2017,08,22,00,14,16.00
2017,08,22,00,15,16.00
2017,08,22,00,16,16.00
2017,08,22,00,17,16.00
2017,08,22,00,18,16.00
2017,08,22,00,19,15.90
2017,08,22,00,20,15.90
2017,08,22,00,21,15.90
2017,08,22,00,22,15.90
2017,08,22,00,23,15.90
2017,08,22,00,24,15.90
2017,08,22,00,25,15.90
2017,08,22,00,26,15.90
2017,08,22,00,27,15.90
2017,08,22,00,28,15.90
2017,08,22,00,29,15.90
2017,08,22,00,30,15.90
2017,08,22,00,31,15.80
2017,08,22,00,32,15.80
2017,08,22,00,33,15.80
2017,08,22,00,34,15.80
2017,08,22,00,35,15.80
2017,08,22,00,36,15.80
2017,08,22,00,37,15.80
2017,08,22,00,38,15.80
2017,08,22,00,39,15.80
2017,08,22,00,40,15.80
2017,08,22,00,41,15.80
2017,08,22,00,42,15.80
2017,08,22,00,43,15.80
2017,08,22,00,44,15.80
2017,08,22,00,45,15.90
2017,08,22,00,46,15.90
2017,08,22,00,47,15.90
2017,08,22,00,48,15.90
2017,08,22,00,49,15.90
2017,08,22,00,50,15.90
2017,08,22,00,51,15.90
2017,08,22,00,52,15.90
2017,08,22,00,53,15.90
2017,08,22,00,54,15.90
2017,08,22,00,55,15.80
2017,08,22,00,56,15.80
2017,08,22,00,57,15.80
2017,08,22,00,58,15.80
2017,08,22,00,59,15.80
2017,08,22,01,00,15.70
2017,08,22,01,01,15.70
2017,08,22,01,02,15.70
2017,08,22,01,03,15.70
2017,08,22,01,04,15.70
2017,08,22,01,05,15.60
2017,08,22,01,06,15.60
2017,08,22,01,07,15.60
2017,08,22,01,08,15.60
2017,08,22,01,09,15.60
2017,08,22,01,10,15.60
2017,08,22,01,11,15.60
2017,08,22,01,12,15.60
2017,08,22,01,13,15.60
2017,08,22,01,14,15.60
2017,08,22,01,15,15.60
2017,08,22,01,16,15.60
2017,08,22,01,17,15.60
2017,08,22,01,18,15.60
2017,08,22,01,19,15.60
2017,08,22,01,20,15.60
2017,08,22,01,21,15.70
2017,08,22,01,22,15.70
2017,08,22,01,23,15.70
2017,08,22,01,24,15.60
2017,08,22,01,25,15.60
2017,08,22,01,26,15.60
2017,08,22,01,27,15.60
2017,08,22,01,28,15.60
2017,08,22,01,29,15.50
2017,08,22,01,30,15.50
2017,08,22,01,31,15.50
2017,08,22,01,32,15.50
2017,08,22,01,33,15.50
2017,08,22,01,34,15.50
2017,08,22,01,35,15.50
2017,08,22,01,36,15.50
2017,08,22,01,37,15.50
2017,08,22,01,38,15.50
2017,08,22,01,39,15.50
2017,08,22,01,40,15.50
2017,08,22,01,41,15.50
2017,08,22,01,42,15.40
2017,08,22,01,43,15.40
2017,08,22,01,44,15.40
2017,08,22,01,45,15.40
2017,08,22,01,46,15.40
2017,08,22,01,47,15.40
2017,08,22,01,48,15.30
2017,08,22,01,49,15.30
2017,08,22,01,50,15.30
2017,08,22,01,51,15.30
2017,08,22,01,52,15.30
2017,08,22,01,53,15.30
2017,08,22,01,54,15.20
2017,08,22,01,55,15.20
2017,08,22,01,56,15.20
2017,08,22,01,57,15.20
2017,08,22,01,58,15.20
2017,08,22,01,59,15.20
2017,08,22,02,00,15.20
2017,08,22,02,01,15.20
2017,08,22,02,02,15.30
2017,08,22,02,03,15.30
2017,08,22,02,04,15.30
2017,08,22,02,05,15.30
2017,08,22,02,06,15.30
2017,08,22,02,07,15.30
2017,08,22,02,08,15.30
2017,08,22,02,09,15.30
2017,08,22,02,10,15.30
2017,08,22,02,11,15.30
2017,08,22,02,12,15.30
2017,08,22,02,13,15.30
2017,08,22,02,14,15.20
2017,08,22,02,15,15.20
2017,08,22,02,16,15.20
2017,08,22,02,17,15.20
2017,08,22,02,18,15.20
2017,08,22,02,19,15.20
2017,08,22,02,20,15.20
2017,08,22,02,21,15.20
2017,08,22,02,22,15.20
2017,08,22,02,23,15.20
2017,08,22,02,24,15.20
2017,08,22,02,25,15.20
2017,08,22,02,26,15.20
2017,08,22,02,27,15.30
2017,08,22,02,28,15.30
2017,08,22,02,29,15.30
2017,08,22,02,30,15.30
2017,08,22,02,31,15.30
2017,08,22,02,32,15.30
2017,08,22,02,33,15.20
2017,08,22,02,34,15.20
2017,08,22,02,35,15.20
2017,08,22,02,36,15.20
2017,08,22,02,37,15.20
2017,08,22,02,38,15.20
2017,08,22,02,39,15.20
2017,08,22,02,40,15.20
2017,08,22,02,41,15.20
2017,08,22,02,42,15.20
2017,08,22,02,43,15.20
2017,08,22,02,44,15.20
2017,08,22,02,45,15.20
2017,08,22,02,46,15.20
2017,08,22,02,47,15.20
2017,08,22,02,48,15.20
2017,08,22,02,49,15.20
2017,08,22,02,50,15.20
2017,08,22,02,51,15.20
2017,08,22,02,52,15.20
2017,08,22,02,53,15.20
2017,08,22,02,54,15.20
2017,08,22,02,55,15.20
2017,08,22,02,56,15.20
2017,08,22,02,57,15.20
2017,08,22,02,58,15.10
2017,08,22,02,59,15.10
2017,08,22,03,00,15.10
2017,08,22,03,01,15.00
2017,08,22,03,02,15.00
2017,08,22,03,03,15.00
2017,08,22,03,04,15.00
2017,08,22,03,05,15.00
2017,08,22,03,06,15.00
2017,08,22,03,07,15.00
2017,08,22,03,08,15.00
2017,08,22,03,09,15.00
2017,08,22,03,10,15.00
2017,08,22,03,11,15.00
2017,08,22,03,12,15.00
2017,08,22,03,13,15.00
2017,08,22,03,14,15.00
2017,08,22,03,15,15.00
2017,08,22,03,16,15.00
2017,08,22,03,17,15.00
2017,08,22,03,18,15.00
2017,08,22,03,19,15.00
2017,08,22,03,20,15.00
2017,08,22,03,21,15.00
2017,08,22,03,22,15.00
2017,08,22,03,23,15.00
2017,08,22,03,24,15.00
2017,08,22,03,25,15.00
2017,08,22,03,26,15.00
2017,08,22,03,27,15.00
2017,08,22,03,28,15.00
2017,08,22,03,29,15.00
2017,08,22,03,30,15.00
2017,08,22,03,31,15.00
2017,08,22,03,32,15.00
2017,08,22,03,33,15.00
2017,08,22,03,34,15.00
2017,08,22,03,35,15.00
2017,08,22,03,36,15.00
2017,08,22,03,37,15.00
2017,08,22,03,38,15.00
2017,08,22,03,39,15.00
2017,08,22,03,40,15.00
2017,08,22,03,41,15.00
2017,08,22,03,42,15.00
2017,08,22,03,43,15.00
2017,08,22,03,44,15.00
2017,08,22,03,45,15.00
2017,08,22,03,46,15.00
2017,08,22,03,47,15.00
2017,08,22,03,48,15.00
2017,08,22,03,49,15.00
2017,08,22,03,50,15.00
2017,08,22,03,51,15.00
2017,08,22,03,52,15.00
2017,08,22,03,53,15.00
2017,08,22,03,54,15.00
2017,08,22,03,55,15.00
2017,08,22,03,56,15.00
2017,08,22,03,57,15.00
2017,08,22,03,58,15.00
2017,08,22,03,59,15.00
2017,08,22,04,00,15.00
2017,08,22,04,01,15.00
2017,08,22,04,02,15.00
2017,08,22,04,03,15.00
2017,08,22,04,04,15.00
2017,08,22,04,05,15.00
2017,08,22,04,06,15.00
2017,08,22,04,07,15.00
2017,08,22,04,08,15.00
2017,08,22,04,09,15.00
2017,08,22,04,10,15.00
2017,08,22,04,11,15.00
2017,08,22,04,12,15.00
2017,08,22,04,13,15.00
2017,08,22,04,14,15.00
2017,08,22,04,15,15.00
2017,08,22,04,16,15.00
2017,08,22,04,17,15.00
2017,08,22,04,18,15.00
2017,08,22,04,19,15.00
2017,08,22,04,20,15.00
2017,08,22,04,21,15.00
2017,08,22,04,22,15.00
2017,08,22,04,23,15.00
2017,08,22,04,24,15.00
2017,08,22,04,25,15.00
2017,08,22,04,26,15.00
2017,08,22,04,27,15.00
2017,08,22,04,28,14.90
2017,08,22,04,29,14.90
2017,08,22,04,30,14.90
2017,08,22,04,31,14.90
2017,08,22,04,32,14.90
2017,08,22,04,33,14.90
2017,08,22,04,34,14.90
2017,08,22,04,35,14.90
2017,08,22,04,36,14.90
2017,08,22,04,37,14.90
2017,08,22,04,38,14.90
2017,08,22,04,39,14.90
2017,08,22,04,40,14.90
2017,08,22,04,41,14.90
2017,08,22,04,42,14.90
2017,08,22,04,43,14.90
2017,08,22,04,44,14.90
2017,08,22,04,45,14.90
2017,08,22,04,46,14.90
2017,08,22,04,47,14.90
2017,08,22,04,48,14.90
2017,08,22,04,49,14.90
2017,08,22,04,50,14.90
2017,08,22,04,51,14.90
2017,08,22,04,52,14.90
2017,08,22,04,53,14.90
2017,08,22,04,54,14.90
2017,08,22,04,55,14.90
2017,08,22,04,56,14.90
2017,08,22,04,57,14.90
2017,08,22,04,58,14.90
2017,08,22,04,59,14.90
2017,08,22,05,00,14.90
2017,08,22,05,01,14.90
2017,08,22,05,02,14.90
2017,08,22,05,03,14.90
2017,08,22,05,04,14.90
2017,08,22,05,05,14.80
2017,08,22,05,06,14.80
2017,08,22,05,07,14.80
2017,08,22,05,08,14.80
2017,08,22,05,09,14.80
2017,08,22,05,10,14.80
2017,08,22,05,11,14.80
2017,08,22,05,12,14.80
2017,08,22,05,13,14.80
2017,08,22,05,14,14.80
2017,08,22,05,15,14.80
2017,08,22,05,16,14.80
2017,08,22,05,17,14.80
2017,08,22,05,18,14.80
2017,08,22,05,19,14.80
2017,08,22,05,20,14.80
2017,08,22,05,21,14.80
2017,08,22,05,22,14.80
2017,08,22,05,23,14.80
2017,08,22,05,24,14.80
2017,08,22,05,25,14.80
2017,08,22,05,26,14.80
2017,08,22,05,27,14.80
2017,08,22,05,28,14.80
2017,08,22,05,29,14.90
2017,08,22,05,30,14.80
2017,08,22,05,31,14.90
2017,08,22,05,32,14.80
2017,08,22,05,33,14.80
2017,08,22,05,34,14.80
2017,08,22,05,35,14.80
2017,08,22,05,36,14.80
2017,08,22,05,37,14.80
2017,08,22,05,38,14.80
2017,08,22,05,39,14.80
2017,08,22,05,40,14.80
2017,08,22,05,41,14.80
2017,08,22,05,42,14.80
2017,08,22,05,43,14.90
2017,08,22,05,44,14.90
2017,08,22,05,45,14.90
2017,08,22,05,46,15.00
2017,08,22,05,47,15.00
2017,08,22,05,48,15.00
2017,08,22,05,49,15.00
2017,08,22,05,50,15.00
2017,08,22,05,51,15.00
2017,08,22,05,52,15.00
2017,08,22,05,53,15.00
2017,08,22,05,54,15.00
2017,08,22,05,55,15.00
2017,08,22,05,56,15.00
2017,08,22,05,57,15.00
2017,08,22,05,58,15.00
2017,08,22,05,59,15.00
2017,08,22,06,00,15.00
2017,08,22,06,01,15.00
2017,08,22,06,02,15.00
2017,08,22,06,03,15.00
2017,08,22,06,04,15.00
2017,08,22,06,05,15.00
2017,08,22,06,06,15.00
2017,08,22,06,07,15.00
2017,08,22,06,08,15.00
2017,08,22,06,09,15.00
2017,08,22,06,10,15.00
2017,08,22,06,11,15.00
2017,08,22,06,12,15.00
2017,08,22,06,13,15.00
2017,08,22,06,14,15.00
2017,08,22,06,15,15.00
2017,08,22,06,16,15.00
2017,08,22,06,17,14.90
2017,08,22,06,18,14.90
2017,08,22,06,19,14.90
2017,08,22,06,20,14.90
2017,08,22,06,21,14.90
2017,08,22,06,22,14.90
2017,08,22,06,23,14.90
2017,08,22,06,24,14.90
2017,08,22,06,25,14.90
2017,08,22,06,26,14.90
2017,08,22,06,27,14.90
2017,08,22,06,28,14.90
2017,08,22,06,29,14.90
2017,08,22,06,30,14.90
2017,08,22,06,31,14.80
2017,08,22,06,32,14.80
2017,08,22,06,33,14.80
2017,08,22,06,34,14.80
2017,08,22,06,35,14.80
2017,08,22,06,36,14.80
2017,08,22,06,37,14.90
2017,08,22,06,38,14.90
2017,08,22,06,39,14.90
2017,08,22,06,40,14.90
2017,08,22,06,41,14.90
2017,08,22,06,42,14.90
2017,08,22,06,43,15.00
2017,08,22,06,44,15.00
2017,08,22,06,45,15.00
2017,08,22,06,46,15.00
2017,08,22,06,47,15.00
2017,08,22,06,48,15.00
2017,08,22,06,49,15.00
2017,08,22,06,50,15.00
2017,08,22,06,51,15.00
2017,08,22,06,52,15.00
2017,08,22,06,53,15.00
2017,08,22,06,54,15.00
2017,08,22,06,55,15.00
2017,08,22,06,56,15.00
2017,08,22,06,57,15.00
2017,08,22,06,58,15.00
2017,08,22,06,59,15.00
2017,08,22,07,00,15.00
2017,08,22,07,01,15.00
2017,08,22,07,02,15.00
2017,08,22,07,03,15.00
2017,08,22,07,04,15.10
2017,08,22,07,05,15.10
2017,08,22,07,06,15.10
2017,08,22,07,07,15.20
2017,08,22,07,08,15.20
2017,08,22,07,09,15.20
2017,08,22,07,10,15.30
2017,08,22,07,11,15.30
2017,08,22,07,12,15.30
2017,08,22,07,13,15.40
2017,08,22,07,14,15.40
2017,08,22,07,15,15.50
2017,08,22,07,16,15.50
2017,08,22,07,17,15.60
2017,08,22,07,18,15.60
2017,08,22,07,19,15.60
2017,08,22,07,20,15.70
2017,08,22,07,21,15.70
2017,08,22,07,22,15.80
2017,08,22,07,23,15.80
2017,08,22,07,24,15.80
2017,08,22,07,25,15.90
2017,08,22,07,26,16.00
2017,08,22,07,27,16.00
2017,08,22,07,28,16.10
2017,08,22,07,29,16.10
2017,08,22,07,30,16.20
2017,08,22,07,31,16.20
2017,08,22,07,32,16.30
2017,08,22,07,33,16.30
2017,08,22,07,34,16.40
2017,08,22,07,35,16.50
2017,08,22,07,36,16.60
2017,08,22,07,37,16.60
2017,08,22,07,38,16.70
2017,08,22,07,39,16.70
2017,08,22,07,40,16.80
2017,08,22,07,41,16.80
2017,08,22,07,42,16.90
2017,08,22,07,43,17.00
2017,08,22,07,44,17.00
2017,08,22,07,45,17.10
2017,08,22,07,46,17.20
2017,08,22,07,47,17.20
2017,08,22,07,48,17.30
2017,08,22,07,49,17.40
2017,08,22,07,50,17.50
2017,08,22,07,51,17.70
2017,08,22,07,52,17.80
2017,08,22,07,53,17.90
2017,08,22,07,54,18.00
2017,08,22,07,55,18.10
2017,08,22,07,56,18.30
2017,08,22,07,57,18.40
2017,08,22,07,58,18.50
2017,08,22,07,59,18.70
2017,08,22,08,00,18.70
2017,08,22,08,01,18.80
2017,08,22,08,02,18.80
2017,08,22,08,03,18.90
2017,08,22,08,04,18.90
2017,08,22,08,05,19.00
2017,08,22,08,06,19.10
2017,08,22,08,07,19.20
2017,08,22,08,08,19.30
2017,08,22,08,09,19.40
2017,08,22,08,10,19.50
2017,08,22,08,11,19.60
2017,08,22,08,12,19.70
2017,08,22,08,13,19.80
2017,08,22,08,14,20.00
2017,08,22,08,15,20.10
2017,08,22,08,16,20.20
2017,08,22,08,17,20.30
2017,08,22,08,18,20.40
2017,08,22,08,19,20.40
2017,08,22,08,20,20.50
2017,08,22,08,21,20.60
2017,08,22,08,22,20.70
2017,08,22,08,23,20.90
2017,08,22,08,24,21.00
2017,08,22,08,25,21.20
2017,08,22,08,26,21.30
2017,08,22,08,27,21.40
2017,08,22,08,28,21.60
2017,08,22,08,29,21.70
2017,08,22,08,30,21.70
2017,08,22,08,31,21.80
2017,08,22,08,32,21.90
2017,08,22,08,33,22.00
2017,08,22,08,34,22.00
2017,08,22,08,35,22.00
2017,08,22,08,36,22.00
2017,08,22,08,37,22.00
2017,08,22,08,38,22.10
2017,08,22,08,39,22.10
2017,08,22,08,40,22.20
2017,08,22,08,41,22.30
2017,08,22,08,42,22.40
2017,08,22,08,43,22.50
2017,08,22,08,44,22.60
2017,08,22,08,45,22.80
2017,08,22,08,46,22.80
2017,08,22,08,47,22.80
2017,08,22,08,48,22.80
2017,08,22,08,49,22.80
2017,08,22,08,50,22.70
2017,08,22,08,51,22.60
2017,08,22,08,52,22.60
2017,08,22,08,53,22.60
2017,08,22,08,54,22.60
2017,08,22,08,55,22.60
2017,08,22,08,56,22.70
2017,08,22,08,57,22.80
2017,08,22,08,58,22.80
2017,08,22,08,59,22.90
2017,08,22,09,00,22.90
2017,08,22,09,01,22.90
2017,08,22,09,02,22.80
2017,08,22,09,03,22.80
2017,08,22,09,04,22.70
2017,08,22,09,05,22.70
2017,08,22,09,06,22.70
2017,08,22,09,07,22.60
2017,08,22,09,08,22.60
2017,08,22,09,09,22.70
2017,08,22,09,10,22.80
2017,08,22,09,11,22.80
2017,08,22,09,12,22.80
2017,08,22,09,13,22.80
2017,08,22,09,14,22.90
2017,08,22,09,15,22.90
2017,08,22,09,16,22.90
2017,08,22,09,17,23.00
2017,08,22,09,18,23.10
2017,08,22,09,19,23.10
2017,08,22,09,20,23.20
2017,08,22,09,21,23.10
2017,08,22,09,22,23.00
2017,08,22,09,23,22.80
2017,08,22,09,24,22.70
2017,08,22,09,25,22.60
2017,08,22,09,26,22.60
2017,08,22,09,27,22.60
2017,08,22,09,28,22.60
2017,08,22,09,29,22.60
2017,08,22,09,30,22.60
2017,08,22,09,31,22.70
2017,08,22,09,32,22.80
2017,08,22,09,33,22.80
2017,08,22,09,34,22.80
2017,08,22,09,35,22.80
2017,08,22,09,36,22.90
2017,08,22,09,37,22.90
2017,08,22,09,38,22.90
2017,08,22,09,39,22.90
2017,08,22,09,40,23.00
2017,08,22,09,41,23.10
2017,08,22,09,42,23.20
2017,08,22,09,43,23.40
2017,08,22,09,44,23.50
2017,08,22,09,45,23.50
2017,08,22,09,46,23.50
2017,08,22,09,47,23.60
2017,08,22,09,48,23.70
2017,08,22,09,49,23.80
2017,08,22,09,50,23.80
2017,08,22,09,51,23.70
2017,08,22,09,52,23.60
2017,08,22,09,53,23.50
2017,08,22,09,54,23.50
2017,08,22,09,55,23.40
2017,08,22,09,56,23.30
2017,08,22,09,57,23.30
2017,08,22,09,58,23.20
2017,08,22,09,59,23.20
2017,08,22,10,00,23.20
2017,08,22,10,01,23.20
2017,08,22,10,02,23.20
2017,08,22,10,03,23.10
2017,08,22,10,04,23.10
2017,08,22,10,05,23.20
2017,08,22,10,06,23.20
2017,08,22,10,07,23.20
2017,08,22,10,08,23.20
2017,08,22,10,09,23.20
2017,08,22,10,10,23.20
2017,08,22,10,11,23.30
2017,08,22,10,12,23.30
2017,08,22,10,13,23.40
2017,08,22,10,14,23.50
2017,08,22,10,15,23.60
2017,08,22,10,16,23.70
2017,08,22,10,17,23.70
2017,08,22,10,18,23.70
2017,08,22,10,19,23.60
2017,08,22,10,20,23.50
2017,08,22,10,21,23.30
2017,08,22,10,22,23.20
2017,08,22,10,23,23.10
2017,08,22,10,24,22.90
2017,08,22,10,25,22.90
2017,08,22,10,26,22.90
2017,08,22,10,27,22.80
2017,08,22,10,28,22.70
2017,08,22,10,29,22.70
2017,08,22,10,30,22.70
2017,08,22,10,31,22.80
2017,08,22,10,32,22.90
2017,08,22,10,33,22.90
2017,08,22,10,34,22.90
2017,08,22,10,35,23.00
2017,08,22,10,36,23.10
2017,08,22,10,37,23.10
2017,08,22,10,38,23.20
2017,08,22,10,39,23.20
2017,08,22,10,40,23.20
2017,08,22,10,41,23.30
2017,08,22,10,42,23.30
2017,08,22,10,43,23.30
2017,08,22,10,44,23.30
2017,08,22,10,45,23.20
2017,08,22,10,46,23.20
2017,08,22,10,47,23.10
2017,08,22,10,48,23.00
2017,08,22,10,49,22.90
2017,08,22,10,50,22.90
2017,08,22,10,51,22.90
2017,08,22,10,52,23.00
2017,08,22,10,53,23.00
2017,08,22,10,54,23.20
2017,08,22,10,55,23.30
2017,08,22,10,56,23.30
2017,08,22,10,57,23.40
2017,08,22,10,58,23.40
2017,08,22,10,59,23.30
2017,08,22,11,00,23.40
2017,08,22,11,01,23.50
2017,08,22,11,02,23.60
2017,08,22,11,03,23.80
2017,08,22,11,04,23.90
2017,08,22,11,05,24.10
2017,08,22,11,06,24.10
2017,08,22,11,07,24.10
2017,08,22,11,08,24.10
2017,08,22,11,09,24.00
2017,08,22,11,10,24.00
2017,08,22,11,11,24.10
2017,08,22,11,12,24.20
2017,08,22,11,13,24.20
2017,08,22,11,14,24.20
2017,08,22,11,15,24.20
2017,08,22,11,16,24.10
2017,08,22,11,17,24.10
2017,08,22,11,18,24.10
2017,08,22,11,19,24.10
2017,08,22,11,20,24.00
2017,08,22,11,21,23.90
2017,08,22,11,22,23.80
2017,08,22,11,23,23.80
2017,08,22,11,24,23.90
2017,08,22,11,25,24.00
2017,08,22,11,26,24.20
2017,08,22,11,27,24.30
2017,08,22,11,28,24.40
2017,08,22,11,29,24.50
2017,08,22,11,30,24.50
2017,08,22,11,31,24.30
2017,08,22,11,32,24.20
2017,08,22,11,33,24.20
2017,08,22,11,34,24.20
2017,08,22,11,35,24.10
2017,08,22,11,36,24.10
2017,08,22,11,37,24.00
2017,08,22,11,38,23.80
2017,08,22,11,39,23.50
2017,08,22,11,40,23.40
2017,08,22,11,41,23.30
2017,08,22,11,42,23.10
2017,08,22,11,43,22.90
2017,08,22,11,44,22.90
2017,08,22,11,45,22.90
2017,08,22,11,46,22.90
2017,08,22,11,47,23.00
2017,08,22,11,48,23.00
2017,08,22,11,49,22.80
2017,08,22,11,50,22.70
2017,08,22,11,51,22.60
2017,08,22,11,52,22.60
2017,08,22,11,53,22.50
2017,08,22,11,54,22.50
2017,08,22,11,55,22.50
2017,08,22,11,56,22.50
2017,08,22,11,57,22.50
2017,08,22,11,58,22.50
2017,08,22,11,59,22.50
2017,08,22,12,00,22.60
2017,08,22,12,01,22.70
2017,08,22,12,02,22.80
2017,08,22,12,03,22.90
2017,08,22,12,04,23.10
2017,08,22,12,05,23.20
2017,08,22,12,06,23.20
2017,08,22,12,07,23.30
2017,08,22,12,08,23.30
2017,08,22,12,09,23.30
2017,08,22,12,10,23.30
2017,08,22,12,11,23.30
2017,08,22,12,12,23.40
2017,08,22,12,13,23.40
2017,08,22,12,14,23.40
2017,08,22,12,15,23.40
2017,08,22,12,16,23.40
2017,08,22,12,17,23.30
2017,08,22,12,18,23.40
2017,08,22,12,19,23.40
2017,08,22,12,20,23.50
2017,08,22,12,21,23.60
2017,08,22,12,22,23.70
2017,08,22,12,23,23.90
2017,08,22,12,24,24.00
2017,08,22,12,25,24.20
2017,08,22,12,26,24.20
2017,08,22,12,27,24.20
2017,08,22,12,28,24.20
2017,08,22,12,29,24.10
2017,08,22,12,30,24.10
2017,08,22,12,31,24.10
2017,08,22,12,32,24.10
2017,08,22,12,33,24.00
2017,08,22,12,34,23.90
2017,08,22,12,35,23.90
2017,08,22,12,36,23.90
2017,08,22,12,37,24.00
2017,08,22,12,38,24.00
2017,08,22,12,39,24.00
2017,08,22,12,40,23.90
2017,08,22,12,41,23.90
2017,08,22,12,42,24.00
2017,08,22,12,43,24.10
2017,08,22,12,44,24.00
2017,08,22,12,45,24.00
2017,08,22,12,46,23.90
2017,08,22,12,47,23.90
2017,08,22,12,48,23.80
2017,08,22,12,49,23.90
2017,08,22,12,50,23.90
2017,08,22,12,51,23.90
2017,08,22,12,52,24.00
2017,08,22,12,53,24.00
2017,08,22,12,54,24.10
2017,08,22,12,55,24.20
2017,08,22,12,56,24.20
2017,08,22,12,57,24.30
2017,08,22,12,58,24.30
2017,08,22,12,59,24.40
2017,08,22,13,00,24.40
2017,08,22,13,01,24.50
2017,08,22,13,02,24.60
2017,08,22,13,03,24.60
2017,08,22,13,04,24.60
2017,08,22,13,05,24.60
2017,08,22,13,06,24.60
2017,08,22,13,07,24.60
2017,08,22,13,08,24.60
2017,08,22,13,09,24.60
2017,08,22,13,10,24.70
2017,08,22,13,11,24.70
2017,08,22,13,12,24.80
2017,08,22,13,13,24.80
2017,08,22,13,14,24.90
2017,08,22,13,15,24.90
2017,08,22,13,16,24.90
2017,08,22,13,17,25.00
2017,08,22,13,18,25.00
2017,08,22,13,19,25.00
2017,08,22,13,20,25.10
2017,08,22,13,21,25.10
2017,08,22,13,22,25.20
2017,08,22,13,23,25.20
2017,08,22,13,24,25.10
2017,08,22,13,25,25.10
2017,08,22,13,26,25.10
2017,08,22,13,27,25.10
2017,08,22,13,28,25.20
2017,08,22,13,29,25.10
2017,08,22,13,30,25.10
2017,08,22,13,31,25.10
2017,08,22,13,32,25.10
2017,08,22,13,33,25.10
2017,08,22,13,34,25.10
2017,08,22,13,35,25.10
2017,08,22,13,36,25.00
2017,08,22,13,37,24.90
2017,08,22,13,38,24.90
2017,08,22,13,39,25.00
2017,08,22,13,40,25.00
2017,08,22,13,41,25.10
2017,08,22,13,42,25.20
2017,08,22,13,43,25.30
2017,08,22,13,44,25.40
2017,08,22,13,45,25.50
2017,08,22,13,46,25.50
2017,08,22,13,47,25.50
2017,08,22,13,48,25.40
2017,08,22,13,49,25.40
2017,08,22,13,50,25.30
2017,08,22,13,51,25.20
2017,08,22,13,52,25.10
2017,08,22,13,53,25.00
2017,08,22,13,54,24.90
2017,08,22,13,55,24.80
2017,08,22,13,56,24.80
2017,08,22,13,57,24.80
2017,08,22,13,58,24.70
2017,08,22,13,59,24.70
2017,08,22,14,00,24.60
2017,08,22,14,01,24.60
2017,08,22,14,02,24.60
2017,08,22,14,03,24.70
2017,08,22,14,04,24.80
2017,08,22,14,05,24.80
2017,08,22,14,06,24.90
2017,08,22,14,07,24.90
2017,08,22,14,08,24.90
2017,08,22,14,09,25.00
2017,08,22,14,10,25.10
2017,08,22,14,11,25.20
2017,08,22,14,12,25.30
2017,08,22,14,13,25.40
2017,08,22,14,14,25.50
2017,08,22,14,15,25.50
2017,08,22,14,16,25.50
2017,08,22,14,17,25.50
2017,08,22,14,18,25.40
2017,08,22,14,19,25.40
2017,08,22,14,20,25.40
2017,08,22,14,21,25.40
2017,08,22,14,22,25.50
2017,08,22,14,23,25.50
2017,08,22,14,24,25.50
2017,08,22,14,25,25.50
2017,08,22,14,26,25.70
2017,08,22,14,27,25.80
2017,08,22,14,28,25.80
2017,08,22,14,29,25.70
2017,08,22,14,30,25.70
2017,08,22,14,31,25.70
2017,08,22,14,32,25.70
2017,08,22,14,33,25.80
2017,08,22,14,34,25.80
2017,08,22,14,35,25.90
2017,08,22,14,36,25.90
2017,08,22,14,37,25.90
2017,08,22,14,38,25.90
2017,08,22,14,39,25.90
2017,08,22,14,40,26.00
2017,08,22,14,41,26.00
2017,08,22,14,42,26.10
2017,08,22,14,43,26.00
2017,08,22,14,44,25.90
2017,08,22,14,45,25.90
2017,08,22,14,46,25.90
2017,08,22,14,47,25.90
2017,08,22,14,48,25.90
2017,08,22,14,49,25.90
2017,08,22,14,50,26.00
2017,08,22,14,51,26.10
2017,08,22,14,52,26.20
2017,08,22,14,53,26.30
2017,08,22,14,54,26.40
2017,08,22,14,55,26.40
2017,08,22,14,56,26.50
2017,08,22,14,57,26.60
2017,08,22,14,58,26.70
2017,08,22,14,59,26.70
2017,08,22,15,00,26.80
2017,08,22,15,01,26.80
2017,08,22,15,02,26.80
2017,08,22,15,03,26.80
2017,08,22,15,04,26.80
2017,08,22,15,05,26.90
2017,08,22,15,06,26.90
2017,08,22,15,07,26.90
2017,08,22,15,08,26.90
2017,08,22,15,09,26.90
2017,08,22,15,10,26.80
2017,08,22,15,11,26.80
2017,08,22,15,12,26.70
2017,08,22,15,13,26.70
2017,08,22,15,14,26.70
2017,08,22,15,15,26.80
2017,08,22,15,16,26.80
2017,08,22,15,17,26.90
2017,08,22,15,18,26.90
2017,08,22,15,19,26.90
2017,08,22,15,20,26.90
2017,08,22,15,21,26.90
2017,08,22,15,22,27.00
2017,08,22,15,23,27.00
2017,08,22,15,24,27.10
2017,08,22,15,25,27.10
2017,08,22,15,26,27.20
2017,08,22,15,27,27.10
2017,08,22,15,28,26.90
2017,08,22,15,29,26.70
2017,08,22,15,30,26.60
2017,08,22,15,31,26.50
2017,08,22,15,32,26.30
2017,08,22,15,33,26.30
2017,08,22,15,34,26.20
2017,08,22,15,35,26.20
2017,08,22,15,36,26.20
2017,08,22,15,37,26.20
2017,08,22,15,38,26.10
2017,08,22,15,39,26.10
2017,08,22,15,40,26.10
2017,08,22,15,41,26.00
2017,08,22,15,42,25.90
2017,08,22,15,43,25.80
2017,08,22,15,44,25.70
2017,08,22,15,45,25.60
2017,08,22,15,46,25.60
2017,08,22,15,47,25.60
2017,08,22,15,48,25.60
2017,08,22,15,49,25.60
2017,08,22,15,50,25.70
2017,08,22,15,51,25.80
2017,08,22,15,52,25.80
2017,08,22,15,53,25.90
2017,08,22,15,54,26.00
2017,08,22,15,55,26.10
2017,08,22,15,56,26.20
2017,08,22,15,57,26.30
2017,08,22,15,58,26.40
2017,08,22,15,59,26.50
2017,08,22,16,00,26.50
2017,08,22,16,01,26.60
2017,08,22,16,02,26.60
2017,08,22,16,03,26.70
2017,08,22,16,04,26.70
2017,08,22,16,05,26.60
2017,08,22,16,06,26.60
2017,08,22,16,07,26.60
2017,08,22,16,08,26.60
2017,08,22,16,09,26.60
2017,08,22,16,10,26.50
2017,08,22,16,11,26.40
2017,08,22,16,12,26.40
2017,08,22,16,13,26.40
2017,08,22,16,14,26.40
2017,08,22,16,15,26.50
2017,08,22,16,16,26.60
2017,08,22,16,17,26.70
2017,08,22,16,18,26.90
2017,08,22,16,19,27.00
2017,08,22,16,20,27.20
2017,08,22,16,21,27.20
2017,08,22,16,22,27.30
2017,08,22,16,23,27.40
2017,08,22,16,24,27.50
2017,08,22,16,25,27.60
2017,08,22,16,26,27.60
2017,08,22,16,27,27.50
2017,08,22,16,28,27.50
2017,08,22,16,29,27.40
2017,08,22,16,30,27.30
2017,08,22,16,31,27.30
2017,08,22,16,32,27.30
2017,08,22,16,33,27.20
2017,08,22,16,34,27.00
2017,08,22,16,35,26.90
2017,08,22,16,36,26.70
2017,08,22,16,37,26.60
2017,08,22,16,38,26.60
2017,08,22,16,39,26.60
2017,08,22,16,40,26.50
2017,08,22,16,41,26.40
2017,08,22,16,42,26.30
2017,08,22,16,43,26.20
2017,08,22,16,44,26.20
2017,08,22,16,45,26.10
2017,08,22,16,46,26.00
2017,08,22,16,47,25.90
2017,08,22,16,48,25.90
2017,08,22,16,49,25.80
2017,08,22,16,50,25.60
2017,08,22,16,51,25.50
2017,08,22,16,52,25.40
2017,08,22,16,53,25.30
2017,08,22,16,54,25.30
2017,08,22,16,55,25.30
2017,08,22,16,56,25.40
2017,08,22,16,57,25.40
2017,08,22,16,58,25.50
2017,08,22,16,59,25.60
2017,08,22,17,00,25.60
2017,08,22,17,01,25.60
2017,08,22,17,02,25.50
2017,08,22,17,03,25.30
2017,08,22,17,04,25.30
2017,08,22,17,05,25.20
2017,08,22,17,06,25.10
2017,08,22,17,07,25.00
2017,08,22,17,08,24.90
2017,08,22,17,09,24.80
2017,08,22,17,10,24.80
2017,08,22,17,11,24.80
2017,08,22,17,12,24.70
2017,08,22,17,13,24.60
2017,08,22,17,14,24.50
2017,08,22,17,15,24.50
2017,08,22,17,16,24.40
2017,08,22,17,17,24.30
2017,08,22,17,18,24.20
2017,08,22,17,19,24.10